Gaylord, MI

2:45 PM EDT on April 25, 2017 (GMT -0400)
Otsego County

Weather History for KGLR - February, 2012

Change the Weather History Date:

Sunday, February 19, 2012

  Actual Average Record
Temperature  
Mean Temperature 16 °F -  
Max Temperature 33 °F 32 °F 53 °F (1981)
Min Temperature -2 °F 15 °F -25 °F (2015)
Degree Days  
Heating Degree Days 50    
Moisture  
Dew Point 10 °F    
Average Humidity 78    
Maximum Humidity 95    
Minimum Humidity 52    
Precipitation  
Precipitation 0.00 in - - ()
Sea Level Pressure  
Sea Level Pressure 30.21 in    
Wind  
Wind Speed 1 mph (SW)    
Max Wind Speed 10 mph    
Max Gust Speed -    
Visibility 10 miles    
Events      
Averages and records for this station are not official NWS values.
T = Trace of Precipitation, MM = Missing Value Source: NWS Daily Summary

Daily Weather History Graph

Daily Weather History Graph

Search for Another Location

Airport or City:

Trip Planner

Search our weather history database for the weather conditions in past years. The results will help you decide how hot, cold, wet, or windy it might be!

Date:

Astronomy

Feb. 19, 2012 Rise Set
Actual Time 7:34 AM EST 6:11 PM EST
Civil Twilight 7:04 AM EST 6:41 PM EST
Nautical Twilight 6:30 AM EST 7:15 PM EST
Astronomical Twilight 5:56 AM EST 7:49 PM EST
Moon 5:59 AM EST (2/19) 4:08 PM EST (2/19)
Length of Visible Light 11h 37m
Length of Day
10h 37m
Waning Crescent, 5% of the Moon is Illuminated
Feb 19
Waning Crescent
Feb 21
New
Feb 29
First Quarter
Mar 8
Full
Mar 14
Last Quarter

Hourly Weather History & Observations

Time (EST) Temp. Windchill Dew Point Humidity Pressure Visibility Wind Dir Wind Speed Gust Speed Precip Events Conditions
12:53 AM 9.0 °F - 7.0 °F 92% 30.23 in 10.0 mi Calm Calm - N/A   Clear
1:53 AM 8.1 °F - 5.0 °F 87% 30.23 in 10.0 mi Calm Calm - N/A   Clear
2:53 AM 1.9 °F -5.6 °F -0.9 °F 88% 30.25 in 10.0 mi West 3.5 mph - N/A   Clear
3:53 AM 3.9 °F - -0.0 °F 84% 30.26 in 10.0 mi Calm Calm - N/A   Clear
4:44 AM 6.8 °F - 1.4 °F 79% 30.16 in 10.0 mi Calm Calm - N/A   Mostly Cloudy
4:53 AM 5.0 °F - 1.0 °F 84% 30.25 in 10.0 mi Calm Calm - N/A   Scattered Clouds
5:53 AM -2.0 °F - -5.1 °F 87% 30.24 in 10.0 mi Calm Calm - N/A   Clear
6:53 AM 1.0 °F - -2.9 °F 83% 30.23 in 10.0 mi Calm Calm - N/A   Scattered Clouds
7:04 AM 1.4 °F - -2.2 °F 85% 30.14 in 10.0 mi Calm Calm - N/A   Mostly Cloudy
7:53 AM 5.0 °F - 3.9 °F 95% 30.25 in 10.0 mi Calm Calm - N/A   Overcast
8:53 AM 10.0 °F - 8.1 °F 92% 30.25 in 10.0 mi Calm Calm - N/A   Overcast
9:53 AM 15.1 °F - 12.9 °F 91% 30.25 in 10.0 mi Calm Calm - N/A   Overcast
10:53 AM 21.9 °F 13.4 °F 17.1 °F 82% 30.24 in 10.0 mi South 6.9 mph - N/A   Overcast
11:53 AM 24.1 °F 17.0 °F 18.0 °F 77% 30.23 in 10.0 mi SSE 5.8 mph - N/A   Overcast
12:53 PM 26.1 °F 18.4 °F 19.0 °F 75% 30.21 in 10.0 mi South 6.9 mph - N/A   Mostly Cloudy
1:03 PM 26.6 °F 22.6 °F 19.4 °F 74% 30.13 in 10.0 mi SSE 3.5 mph - N/A   Scattered Clouds
1:53 PM 28.0 °F - 19.0 °F 69% 30.18 in 10.0 mi Calm Calm - N/A   Clear
2:53 PM 30.9 °F 27.5 °F 18.0 °F 59% 30.16 in 10.0 mi Variable 3.5 mph - N/A   Partly Cloudy
3:53 PM 33.1 °F 24.9 °F 17.1 °F 52% 30.16 in 10.0 mi WSW 10.4 mph - N/A   Clear
4:53 PM 33.1 °F 28.7 °F 17.1 °F 52% 30.16 in 10.0 mi WNW 4.6 mph - N/A   Clear
5:53 PM 30.0 °F 24.1 °F 17.1 °F 59% 30.18 in 10.0 mi WNW 5.8 mph - N/A   Clear
6:53 PM 25.0 °F - 16.0 °F 69% 30.19 in 10.0 mi Calm Calm - N/A   Clear
7:53 PM 25.0 °F - 16.0 °F 69% 30.19 in 10.0 mi Calm Calm - N/A   Clear
8:53 PM 21.0 °F - 16.0 °F 81% 30.20 in 10.0 mi Calm Calm - N/A   Clear
9:53 PM 19.9 °F - 15.1 °F 81% 30.20 in 10.0 mi Calm Calm - N/A   Clear
10:53 PM 18.0 °F - 12.9 °F 81% 30.20 in 10.0 mi Calm Calm - N/A   Clear
11:53 PM 15.1 °F - 10.9 °F 84% 30.21 in 10.0 mi Calm Calm - N/A   Clear